Temperature
20 21 21 20 20 20 20 19 19 19 19 19 19 19 19 19 19 19 19 18 18 18 18 18 18 18 18 18 18 18 18 18 18 18 18 18 17 17 17 17 17 17 17
21 21 21 20 20 20 20 19 19 19 19 19 19 19 19 19 18 18 18 18 18 18 18 18 18 18 18 18 18 18 18 18 18 18 18 18 17 17 17 17 17 17 17
21 21 21 20 20 20 19 19 19 19 19 19 19 19 19 18 18 18 18 18 18 18 18 18 18 18 18 18 18 18 18 18 18 17 17 17 17 17 17 17 17 17 17
21 21 21 20 20 20 19 19 19 19 19 19 19 19 18 18 18 18 18 18 18 18 18 18 18 18 18 18 18 18 18 17 17 17 17 17 17 17 17 17 17 17 17
21 20 21 20 20 20 19 19 19 19 19 19 18 18 18 18 18 18 18 18 18 18 18 18 18 18 18 18 18 18 17 17 17 17 17 17 17 17 17 17 17 17 17
20 21 21 20 20 20 19 19 19 19 19 19 18 18 18 18 18 18 18 18 18 18 18 18 18 18 18 18 18 18 17 17 17 17 17 17 17 17 17 17 17 17 17
20 21 21 20 20 20 19 19 19 19 19 19 18 18 18 18 18 18 18 18 18 18 18 18 18 18 18 18 18 18 17 17 17 17 17 17 17 17 17 17 17 17 17
20 21 21 20 20 20 19 19 19 19 19 19 18 18 18 18 18 18 18 18 18 18 18 18 18 18 18 18 18 18 18 17 17 17 17 17 17 17 17 17 17 17 17
21 21 21 20 20 20 19 19 19 19 19 19 18 18 18 18 18 18 18 18 18 18 18 18 18 18 18 18 18 18 18 18 17 17 17 18 17 17 17 17 17 17 17
21 20 20 20 20 20 19 19 19 19 19 19 19 18 18 18 18 18 18 18 18 18 18 18 18 18 18 18 18 18 18 18 17 17 18 18 17 17 17 17 17 17 17
21 20 20 19 20 19 19 19 19 19 19 19 18 18 18 18 18 18 18 18 18 18 18 18 18 18 18 18 18 18 18 18 18 18 18 18 17 17 17 17 17 17 17
21 20 20 19 19 19 18 19 19 19 19 18 18 18 18 18 18 18 18 18 18 18 18 18 18 18 18 18 18 18 18 18 18 18 18 18 18 17 17 17 17 17 17
21 21 20 20 20 19 19 19 18 18 19 18 18 18 18 18 18 18 18 18 18 18 18 18 18 18 18 18 18 18 18 18 18 18 18 18 18 17 17 17 17 17 17
21 21 21 20 20 20 19 19 19 19 19 18 18 18 18 18 18 18 18 18 18 18 18 18 18 17 18 18 18 18 18 18 18 18 18 18 18 18 18 17 17 17 17
21 21 21 20 20 19 19 19 19 19 19 19 19 18 18 18 18 18 18 18 18 18 18 18 18 18 18 18 18 18 18 18 18 18 18 18 18 18 18 17 17 17 17
21 21 20 20 20 19 19 19 19 19 19 19 19 18 18 18 18 18 18 18 18 18 18 18 18 18 18 18 18 18 18 18 17 18 18 18 18 18 18 17 17 17 17
21 21 20 20 20 19 19 19 19 19 19 19 19 18 18 18 18 18 18 18 18 18 18 18 18 18 18 18 18 18 18 18 17 17 17 17 18 17 17 17 17 17 17
21 21 20 20 19 19 19 19 19 19 19 19 19 18 19 18 18 18 18 18 18 18 18 18 18 18 18 18 18 18 18 18 17 17 17 17 17 17 17 17 17 17 17
21 21 20 20 20 19 19 19 19 19 19 19 19 19 19 18 18 18 18 18 18 18 18 18 18 18 18 18 18 18 18 18 18 17 17 17 17 17 17 17 17 17 17
21 21 20 20 20 19 19 19 19 19 19 19 19 19 19 19 18 18 18 18 18 18 18 18 18 18 18 18 18 18 18 18 18 18 18 17 17 17 17 17 17 17 17
21 20 20 20 20 19 19 19 19 19 19 19 19 19 19 19 18 18 18 18 18 18 18 18 18 18 18 18 18 18 18 18 18 18 18 18 17 17 17 17 17 17 17
21 20 20 20 20 20 19 19 19 19 19 19 19 19 18 18 18 18 18 18 18 18 18 18 18 18 18 18 18 18 18 18 18 18 18 18 18 18 17 17 17 17 17
20 20 20 20 20 20 20 19 19 18 18 18 18 18 18 18 18 18 18 18 18 18 18 18 18 18 18 18 18 18 18 18 18 18 18 18 18 18 18 17 17 17 17
21 20 20 20 20 20 20 19 19 19 19 19 19 19 18 18 18 18 18 18 18 18 18 18 18 18 18 18 18 18 18 18 18 18 18 18 18 18 18 18 17 17 17
21 20 20 20 20 20 20 20 19 19 19 19 19 19 18 18 18 18 18 18 18 18 18 18 17 18 17 18 18 18 18 18 18 18 18 18 18 18 18 18 18 18 17
21 20 20 20 20 20 20 19 19 19 19 19 18 18 18 18 18 18 18 18 18 18 18 17 17 17 17 17 18 18 18 18 18 18 18 18 18 18 18 18 18 18 18
Wind_Speed
17 17 18 17 17 17 18 17 17 17 17 17 17 17 17 17 17 17 17 17 17 17 17 17 17 18 18 19 19 19 20 20 21 21 21 20 18 17 17 19 20 18 19
21 19 19 18 18 18 18 17 17 17 17 16 16 17 17 17 17 17 16 17 17 17 17 17 17 17 18 18 17 17 18 18 19 20 21 19 18 16 16 18 19 17 18
21 20 19 18 18 18 18 18 17 16 16 16 16 16 16 16 16 16 17 17 17 17 17 17 17 17 17 16 16 15 15 16 17 19 19 18 18 19 20 20 19 18 18
21 20 19 19 18 18 18 18 17 17 16 16 16 16 16 16 16 16 16 16 16 16 16 16 16 16 16 15 13 12 11 11 12 12 15 16 17 18 19 18 18 17 17
20 20 20 20 19 18 18 18 17 16 16 15 15 15 15 16 15 16 16 16 16 16 16 16 16 15 14 13 11 9 7 7 8 11 17 18 16 17 17 17 17 16 16
21 21 20 20 19 18 18 17 17 16 15 15 15 15 15 15 15 15 15 15 16 16 16 15 15 14 13 11 8 5 3 1 5 13 17 18 15 16 16 16 16 16 16
21 21 20 20 19 18 18 17 16 15 15 14 15 14 14 14 14 15 15 15 15 15 15 15 14 13 12 9 6 3 1 1 9 15 18 17 15 16 15 15 16 15 15
22 20 20 20 19 18 17 17 16 15 15 15 15 15 14 14 15 15 15 15 15 15 14 14 14 13 10 7 4 2 3 3 13 17 18 16 15 15 15 15 15 14 14
22 19 18 18 18 17 17 16 16 15 15 15 15 15 15 15 14 15 14 15 14 14 13 13 13 12 9 6 2 1 4 5 10 15 17 15 15 15 14 14 14 13 13
20 18 17 17 17 16 16 16 16 15 15 15 15 15 15 15 15 15 14 14 13 13 12 12 12 11 8 5 2 2 5 5 10 16 15 14 15 14 14 13 13 12 12
18 17 17 16 16 16 16 16 15 15 14 15 14 14 14 13 14 13 14 13 13 12 11 11 11 10 8 5 3 4 5 0 12 15 15 16 15 13 13 12 12 11 11
17 17 15 16 15 15 15 15 14 13 13 12 12 13 11 10 12 14 15 13 12 11 10 10 10 10 8 6 6 6 5 6 12 14 14 16 14 13 12 11 11 11 10
15 15 15 13 11 12 11 12 10 11 12 11 13 12 10 11 13 14 11 11 10 11 9 10 9 9 7 4 5 5 2 6 12 14 14 15 14 12 11 10 10 10 10
15 14 15 13 9 8 10 9 9 9 9 9 11 12 9 6 7 9 8 10 10 9 8 8 6 5 6 6 4 3 4 7 13 14 14 14 13 12 11 10 9 9 9
14 13 13 12 10 7 6 6 8 7 9 11 11 9 10 6 5 6 6 8 9 9 7 4 3 3 3 3 3 4 4 8 13 14 13 14 13 11 10 9 9 9 8
16 14 14 12 10 7 6 3 3 6 8 11 10 11 10 8 6 5 4 4 4 7 7 5 5 3 2 2 2 3 3 5 10 14 14 13 13 12 10 10 9 9 8
16 14 13 12 11 9 8 6 5 6 9 7 9 11 9 8 9 6 4 4 4 7 7 4 4 4 3 3 3 3 3 4 7 11 14 13 12 12 11 11 10 9 9
15 13 13 14 13 10 8 6 4 5 7 6 9 11 9 8 10 7 5 4 6 7 6 3 2 3 2 2 2 2 3 3 5 8 11 13 13 12 13 13 12 11 10
14 14 13 11 13 12 9 6 4 3 4 6 8 9 10 10 10 6 4 4 7 4 4 5 4 3 3 3 3 3 3 3 4 6 7 10 12 13 14 14 14 13 12
14 14 13 11 12 11 9 6 4 4 4 4 6 8 11 10 10 7 4 6 6 3 3 2 4 2 2 2 3 3 3 4 4 3 5 7 11 13 15 15 14 14 15
15 15 14 13 12 11 9 9 8 7 6 5 6 10 12 11 11 7 4 5 4 4 4 5 4 4 2 2 1 1 2 4 5 4 4 4 6 9 12 16 15 14 14
15 15 15 14 14 12 9 8 7 7 7 6 5 8 12 11 11 10 5 5 5 3 4 4 4 2 3 3 2 2 1 1 3 6 5 5 5 7 8 13 14 15 14
17 16 16 14 13 13 11 8 7 5 6 6 6 7 8 11 11 9 8 6 6 5 5 5 5 4 3 3 3 2 2 1 2 3 6 6 5 4 5 7 11 14 14
16 16 13 14 13 13 12 11 11 10 9 9 7 7 8 10 10 10 9 7 6 5 6 7 7 5 4 3 3 2 2 2 1 1 3 3 5 6 5 5 7 11 13
16 15 14 13 13 13 12 12 11 11 9 8 8 9 9 9 9 10 9 7 7 5 6 6 6 6 4 4 3 3 3 3 4 2 3 3 3 4 6 5 5 8 13
15 14 14 13 13 12 13 13 12 12 10 9 8 9 9 8 8 9 10 8 8 6 6 6 6 7 5 5 4 3 3 3 3 3 3 3 4 4 5 4 5 6 10
Wind_Direction
119 120 120 118 118 118 115 112 108 105 102 98 95 93 91 93 97 96 97 98 100 101 99 98 96 94 92 91 91 93 95 97 98 98 97 95 94 95 100 103 97 95 97
121 122 121 119 119 120 119 116 112 110 107 103 100 96 95 95 96 98 99 100 102 102 101 100 99 98 97 96 97 100 103 105 107 106 101 94 91 91 92 92 94 100 100
121 124 122 119 120 121 120 118 115 112 110 108 104 102 100 99 99 100 102 103 104 104 104 102 102 101 101 101 103 106 110 115 120 120 110 99 91 90 92 95 99 101 100
125 129 124 123 122 123 122 120 118 115 113 111 108 106 105 103 102 102 103 104 106 106 105 104 104 104 105 106 109 112 117 126 134 130 106 101 97 96 97 99 102 102 101
127 124 124 126 124 124 123 122 120 117 116 114 112 109 107 106 106 106 105 106 107 107 106 106 106 107 108 111 114 118 124 130 130 103 93 94 96 101 101 102 102 102 103
126 125 128 128 127 126 125 123 122 121 119 117 114 112 111 110 109 109 108 107 107 107 107 107 108 109 110 113 117 118 117 119 108 105 104 102 102 103 103 103 103 102 102
127 127 131 131 130 129 128 127 126 125 124 121 117 115 114 114 113 112 111 109 109 108 108 108 109 111 112 116 117 110 56 17 106 103 98 99 105 106 104 104 104 103 103
128 129 131 133 133 132 132 131 131 130 127 123 121 120 118 117 116 115 114 113 112 111 111 111 112 113 114 115 110 60 351 9 106 106 103 104 109 107 105 105 105 105 106
129 131 137 138 137 137 136 135 134 131 129 128 127 125 123 120 119 118 118 116 115 115 115 115 117 118 119 121 117 325 332 6 103 112 109 110 112 110 109 107 108 108 107
132 139 143 144 144 145 142 141 139 136 136 135 135 134 130 128 126 126 123 120 119 120 120 121 124 127 130 138 172 296 324 345 114 105 108 117 119 116 115 114 112 112 112
138 143 146 147 153 154 150 146 145 144 143 143 145 145 145 145 140 139 123 127 127 127 129 132 137 141 146 163 210 269 291 58 99 103 110 122 123 122 121 121 119 117 117
144 149 150 152 161 160 150 149 156 156 155 162 155 161 170 156 142 129 132 136 138 139 143 151 156 162 172 174 198 236 250 138 115 110 121 129 129 128 127 127 126 125 124
150 154 150 155 164 157 144 159 165 157 161 170 163 171 175 149 135 133 144 146 151 158 166 162 177 191 185 184 184 207 186 102 113 113 130 134 135 136 137 137 136 133 133
159 157 152 154 159 151 150 161 163 157 165 163 167 178 161 154 147 149 156 162 169 176 176 179 196 167 170 178 169 143 105 99 109 118 137 142 142 144 146 147 148 147 144
163 159 149 152 154 147 139 164 168 158 163 157 164 178 164 161 152 150 156 167 178 165 168 174 143 134 138 133 113 100 90 104 123 127 139 150 152 155 157 157 158 159 159
167 162 153 156 150 142 143 172 153 153 153 152 165 169 173 160 145 141 146 172 172 150 148 147 147 145 139 109 104 111 108 112 124 133 146 157 162 166 168 170 172 172 174
170 161 155 156 152 154 161 184 173 164 159 157 158 157 174 163 151 154 159 179 164 135 128 142 155 154 166 159 153 138 124 122 124 139 153 161 170 178 181 183 184 186 186
169 159 162 168 161 164 169 187 187 176 156 153 154 159 175 167 160 171 167 178 153 150 153 153 181 165 152 154 161 166 127 134 148 158 162 168 173 179 187 193 193 194 196
165 161 165 166 163 169 173 182 195 171 155 156 159 162 173 174 171 187 173 151 157 165 162 179 159 164 164 178 182 168 166 178 176 185 171 176 175 174 179 191 197 199 201
164 164 168 170 165 168 170 180 192 178 172 172 167 167 168 176 178 192 172 151 170 173 162 136 131 143 150 193 216 174 188 184 184 181 189 185 178 183 180 181 189 202 209
168 168 173 177 171 171 178 182 187 186 187 189 183 171 170 180 181 192 180 156 185 176 163 159 153 162 198 202 187 190 218 198 187 182 205 190 189 193 180 176 189 193 201
174 174 177 182 179 181 183 185 189 184 185 191 192 168 176 184 182 188 187 175 182 174 166 161 152 170 207 192 178 159 226 239 231 212 195 196 200 196 187 190 193 185 194
180 182 185 185 184 186 182 183 189 181 190 196 189 176 184 187 188 193 182 188 177 183 175 179 176 191 207 208 205 179 182 212 228 232 215 203 190 197 204 201 195 192 199
183 184 184 183 186 189 186 190 190 192 195 198 188 182 187 192 193 196 187 193 184 191 172 186 187 193 200 217 220 215 189 167 190 234 255 218 201 209 210 213 210 197 204
185 185 185 184 188 189 193 197 196 202 202 197 189 183 186 191 196 201 195 191 192 201 191 192 173 188 197 219 224 210 214 207 214 206 239 238 231 222 210 210 210 205 202
184 185 185 186 190 191 196 202 204 206 204 199 192 186 188 190 197 203 201 193 195 206 201 192 182 191 205 221 239 237 209 208 223 221 226 229 234 236 221 211 205 207 206
Height
1508 1510 1513 1515 1517 1519 1521 1523 1524 1526 1528 1529 1530 1532 1533 1534 1536 1537 1539 1540 1542 1543 1544 1546 1547 1548 1549 1551 1552 1553 1554 1555 1556 1558 1559 1560 1561 1562 1563 1564 1565 1566 1567
1508 1511 1514 1516 1519 1521 1523 1525 1527 1529 1530 1532 1533 1535 1536 1537 1538 1540 1541 1543 1544 1545 1547 1548 1549 1551 1552 1553 1554 1556 1557 1558 1560 1560 1561 1562 1564 1565 1566 1567 1568 1569 1570
1508 1512 1515 1518 1520 1523 1525 1527 1529 1531 1533 1534 1536 1537 1539 1540 1541 1543 1544 1545 1547 1548 1549 1550 1552 1553 1554 1556 1557 1558 1560 1561 1562 1563 1564 1565 1566 1568 1569 1570 1570 1571 1572
1510 1513 1517 1519 1522 1525 1527 1529 1532 1533 1535 1536 1538 1540 1541 1543 1544 1546 1547 1548 1549 1550 1552 1553 1554 1555 1557 1558 1560 1561 1563 1564 1565 1566 1568 1568 1569 1570 1571 1572 1573 1574 1575
1512 1515 1518 1521 1524 1527 1529 1531 1534 1535 1537 1539 1540 1542 1544 1545 1547 1548 1549 1551 1552 1553 1554 1555 1557 1558 1559 1561 1562 1564 1565 1567 1568 1569 1570 1571 1571 1572 1574 1574 1575 1576 1577
1514 1517 1520 1523 1526 1528 1531 1533 1535 1537 1539 1541 1542 1544 1546 1547 1549 1550 1552 1553 1554 1555 1557 1558 1559 1560 1562 1563 1565 1566 1567 1569 1570 1572 1572 1573 1574 1575 1576 1577 1578 1579 1580
1516 1518 1521 1524 1527 1530 1533 1535 1537 1539 1541 1543 1544 1546 1548 1549 1551 1552 1554 1555 1556 1557 1559 1560 1561 1563 1564 1565 1567 1568 1570 1571 1572 1574 1574 1575 1576 1577 1578 1579 1580 1581 1582
1517 1519 1522 1526 1529 1531 1534 1536 1539 1541 1543 1544 1546 1548 1550 1551 1553 1554 1556 1557 1558 1560 1561 1562 1563 1565 1566 1568 1569 1570 1572 1573 1575 1576 1576 1577 1578 1579 1580 1581 1582 1583 1584
1518 1521 1524 1527 1530 1533 1535 1538 1540 1542 1544 1546 1548 1550 1551 1553 1555 1556 1558 1559 1560 1562 1563 1564 1566 1567 1568 1570 1571 1573 1574 1575 1577 1577 1578 1578 1580 1581 1581 1582 1584 1585 1586
1520 1522 1525 1528 1531 1534 1536 1539 1541 1543 1546 1547 1549 1551 1553 1555 1556 1558 1560 1561 1562 1564 1565 1566 1568 1569 1570 1572 1573 1575 1576 1578 1579 1579 1580 1580 1581 1582 1583 1584 1585 1586 1587
1522 1524 1527 1529 1532 1535 1537 1540 1542 1544 1547 1549 1551 1553 1554 1556 1558 1560 1561 1563 1564 1566 1567 1568 1570 1571 1572 1574 1576 1577 1578 1579 1580 1580 1581 1582 1583 1584 1585 1586 1587 1588 1589
1522 1526 1528 1531 1533 1537 1539 1541 1543 1546 1548 1550 1552 1554 1556 1558 1560 1562 1563 1564 1566 1567 1569 1570 1572 1573 1574 1576 1578 1578 1580 1581 1581 1581 1582 1583 1584 1585 1586 1587 1588 1589 1590
1522 1526 1529 1531 1535 1538 1540 1542 1544 1547 1549 1551 1553 1555 1557 1560 1561 1563 1564 1566 1567 1569 1570 1572 1573 1574 1576 1578 1579 1580 1581 1582 1582 1582 1583 1584 1585 1586 1587 1588 1589 1590 1591
1522 1526 1529 1532 1535 1539 1541 1543 1546 1548 1549 1552 1554 1556 1558 1560 1562 1564 1565 1567 1568 1570 1572 1573 1574 1576 1577 1579 1580 1581 1582 1583 1583 1583 1584 1585 1586 1586 1587 1588 1589 1590 1591
1520 1524 1528 1531 1535 1538 1541 1544 1546 1548 1550 1552 1554 1556 1559 1561 1563 1564 1566 1568 1569 1571 1572 1574 1575 1577 1578 1580 1581 1582 1583 1584 1583 1584 1585 1586 1586 1587 1588 1589 1590 1591 1592
1519 1523 1526 1530 1533 1537 1540 1543 1546 1548 1550 1552 1554 1556 1559 1561 1563 1564 1566 1568 1570 1572 1573 1574 1576 1577 1578 1580 1581 1582 1583 1584 1585 1584 1585 1586 1587 1588 1588 1589 1590 1591 1592
1517 1521 1524 1528 1531 1535 1538 1542 1545 1547 1549 1551 1553 1555 1558 1560 1562 1564 1566 1568 1570 1571 1573 1574 1576 1577 1579 1580 1581 1583 1583 1584 1585 1585 1585 1586 1587 1588 1589 1589 1590 1591 1591
1516 1519 1523 1527 1529 1533 1536 1540 1544 1546 1548 1550 1552 1554 1557 1559 1561 1563 1565 1567 1569 1571 1573 1574 1576 1578 1579 1580 1581 1582 1583 1584 1585 1585 1586 1586 1587 1588 1588 1589 1590 1590 1591
1513 1517 1520 1525 1527 1531 1534 1538 1542 1544 1546 1549 1551 1553 1555 1558 1560 1562 1565 1567 1568 1571 1572 1574 1575 1577 1578 1580 1581 1582 1582 1583 1584 1585 1586 1587 1587 1587 1588 1589 1589 1590 1590
1511 1514 1518 1522 1525 1528 1532 1536 1539 1542 1544 1547 1549 1551 1553 1555 1558 1560 1563 1565 1567 1569 1571 1573 1575 1576 1577 1579 1580 1581 1582 1583 1584 1585 1586 1586 1587 1587 1587 1588 1588 1589 1589
1508 1511 1515 1519 1522 1525 1529 1532 1536 1539 1542 1544 1547 1549 1551 1554 1556 1558 1562 1563 1566 1568 1569 1571 1573 1575 1576 1578 1579 1580 1581 1582 1583 1584 1584 1585 1586 1586 1587 1586 1587 1587 1588
1505 1508 1511 1515 1519 1522 1526 1530 1533 1536 1539 1542 1545 1547 1549 1552 1554 1557 1559 1561 1563 1566 1568 1569 1571 1573 1575 1577 1578 1579 1580 1582 1581 1582 1583 1584 1584 1585 1586 1585 1585 1585 1586
1502 1505 1508 1512 1516 1520 1523 1527 1531 1534 1537 1540 1542 1544 1546 1549 1551 1554 1556 1559 1561 1563 1565 1567 1569 1571 1573 1575 1576 1578 1578 1579 1580 1581 1581 1582 1583 1583 1584 1584 1584 1584 1584
1498 1502 1506 1509 1513 1516 1520 1523 1526 1529 1531 1535 1538 1540 1543 1546 1549 1551 1553 1556 1558 1561 1563 1565 1567 1568 1571 1572 1574 1576 1577 1578 1578 1579 1580 1580 1581 1581 1581 1582 1582 1582 1582
1496 1499 1503 1506 1509 1512 1516 1519 1522 1525 1528 1532 1535 1537 1540 1542 1545 1548 1550 1553 1555 1558 1560 1562 1564 1566 1568 1570 1572 1573 1574 1576 1576 1577 1577 1578 1578 1578 1579 1579 1579 1580 1580
1494 1497 1500 1503 1506 1509 1512 1515 1518 1521 1525 1528 1530 1533 1536 1538 1541 1544 1547 1549 1552 1554 1557 1559 1561 1563 1565 1566 1568 1570 1572 1573 1574 1574 1575 1575 1575 1575 1575 1576 1576 1577 1577